Meath Environmental Platform

Observations for Trim Patrick St

Time AQI Temp °C Hum % Pres Pa CO μg/m³ H₂S μg/m³ NO μg/m³ NO₂ μg/m³ O₃ μg/m³ SO₂ μg/m³ PM1 μg/m³ PM2.5 μg/m³ PM10 μg/m³
Wednesday 5 August 2026
22:20 2 14.9 67 77,976 0.12 4.71 3.16 12.32 58.77 0 2.86 6.82 7.5
22:19 2 14.9 67 77,744 0.12 4.73 3.17 11.98 56.83 0 2.86 6.82 7.5
22:18 2 15 67 77,506 0.12 4.86 3.14 15.54 59.54 0 2 6.09 6.7
22:17 2 14.9 66 77,315 0.13 4.5 3.14 14.74 57.45 0 2.86 6.86 7.55
22:16 2 15 66 77,119 0.13 3.98 3.12 12.75 54.44 0 2 6.13 6.75
22:15 2 15 66 76,960 0.12 4.34 3.11 10.97 52.99 0 2 6.15 6.76
22:14 2 15 66 76,842 0.11 4.47 3.12 12.29 57.03 0 2.86 6.13 6.75
22:13 2 15 66 76,700 0.12 4.16 3.11 13.91 59.87 0 2 6.16 6.78
22:12 2 15.1 65 76,553 0.1 2.73 3.07 9.5 52.15 0 2.86 6.92 7.62
22:11 2 15.1 65 76,460 0.11 3.61 3.06 11.5 54.92 0 2 6.92 7.61
22:10 2 15.1 65 76,342 0.11 3.59 3.02 9.91 54.79 0 2 6.19 6.8
22:09 2 15.1 64 76,250 0.12 3.33 2.97 10.67 59.94 0 2.86 6.96 7.66
22:08 2 15.1 65 76,136 0.11 3.17 2.98 11.84 59.36 0 2 6.19 6.81
22:07 2 15.1 65 76,047 0.12 2.91 3.04 9.14 54.36 0 2.86 6.19 6.81
22:06 2 15.2 65 75,971 0.11 3.07 3.04 10.82 60.27 0 2 6.19 6.81
22:04 2 15.2 64 75,864 0.13 1.82 3.02 9.69 50.54 0 2 5.5 6.05
22:03 2 15.3 64 75,827 0.12 2.05 2.98 9.41 56.12 0 2 6.97 7.67
22:02 2 15.3 64 75,798 0.12 2.08 2.99 9.09 56.65 0 2 6.24 6.87
22:01 2 15.3 64 75,778 0.12 2.37 2.98 8.53 55.15 0 2 6.24 6.87
22:00 2 15.3 64 75,750 0.11 2.42 2.98 9.6 59.37 0 2.86 6.98 7.68